Wind_Speed
10 10 9 6 8 10 9 7 6 6 6 4 4 3 3 3 2 2 5 6 6 7 8 9 11 12 12 11 10 10 11 11 11 11 11 11 10 8 8 9 7 7 6 6 6 8 8 7 7
9 9 9 9 10 12 10 9 8 7 7 5 4 3 2 3 3 3 5 7 8 9 10 10 12 12 11 11 11 11 12 13 14 13 13 13 12 9 9 11 11 10 8 8 7 8 8 8 8
9 9 9 8 9 13 13 10 8 7 8 9 9 7 5 3 4 6 7 8 9 9 9 9 10 11 11 11 12 13 15 16 16 15 14 14 14 11 11 12 12 11 9 8 8 8 8 9 9
5 5 6 6 8 10 11 9 7 7 9 11 10 9 8 6 7 8 8 8 9 8 7 6 8 11 11 12 14 16 17 16 17 17 17 18 18 16 13 11 12 11 9 9 9 9 9 10 10
2 3 4 7 7 8 7 6 5 7 9 10 9 9 9 8 8 8 8 9 9 8 7 7 8 10 12 13 15 17 17 16 17 20 19 19 20 18 14 12 11 12 11 10 10 10 11 11 10
3 5 6 8 10 10 10 8 6 6 7 7 8 9 9 9 8 9 9 10 10 9 8 7 7 8 11 13 14 15 16 18 20 19 17 14 9 10 11 11 11 12 10 11 11 11 12 11 11
6 7 9 10 13 13 13 10 8 6 6 7 8 9 8 9 9 10 12 12 11 10 9 6 6 8 11 13 14 15 16 18 19 17 16 15 10 11 14 12 8 9 9 11 12 12 13 12 12
9 10 10 14 16 16 15 13 10 11 10 10 10 10 10 10 11 13 14 13 12 12 9 6 7 10 12 14 15 16 17 18 18 18 17 15 13 12 12 13 7 8 8 9 12 12 13 12 12
10 11 13 16 19 19 16 17 13 12 14 13 12 12 13 14 14 14 15 15 14 13 10 9 10 12 14 15 15 16 16 19 19 18 17 15 13 11 10 6 4 4 6 8 9 9 9 10 10
12 13 15 17 20 19 18 18 16 15 17 16 14 14 15 16 17 17 16 16 15 14 12 12 13 14 14 13 13 16 17 19 19 16 15 13 11 11 10 7 6 6 7 7 9 8 8 9 9
14 16 19 20 21 20 19 19 19 18 17 14 13 14 17 19 20 19 18 18 16 15 13 14 15 15 14 14 14 17 17 16 14 12 11 10 11 11 11 10 7 7 8 7 8 8 8 8 8
16 18 22 24 24 23 22 20 19 18 16 14 13 14 18 20 21 20 19 18 19 18 17 17 18 17 17 17 17 17 16 13 12 11 10 11 11 12 12 11 10 10 9 6 5 6 6 6 7
18 21 25 27 27 26 24 22 19 17 16 16 15 14 16 19 20 21 20 20 21 21 19 18 19 19 20 20 19 18 16 13 13 10 9 9 11 12 11 11 11 11 9 6 5 6 7 7 8
21 24 28 29 28 24 21 20 18 16 15 17 19 20 19 21 23 24 23 22 22 22 22 21 22 22 23 22 20 19 17 14 13 11 9 10 11 12 12 10 11 10 8 8 6 7 7 8 9
23 27 29 28 25 20 16 18 18 17 17 20 21 21 22 23 26 27 26 25 25 25 25 25 25 24 24 23 22 21 18 16 14 12 10 8 9 10 11 9 10 10 9 9 6 5 5 6 8
26 28 29 25 22 17 16 17 20 21 22 22 23 23 24 27 28 30 29 29 28 28 27 26 26 25 25 25 25 24 21 19 17 15 13 10 9 10 11 10 10 10 9 8 5 5 5 6 8
28 28 25 21 20 18 18 20 23 24 23 24 25 27 27 29 30 32 31 32 32 31 29 29 28 24 22 24 24 25 23 22 20 17 15 13 11 11 11 11 12 11 9 8 7 6 6 7 8
28 24 21 18 21 20 22 23 27 27 27 27 28 29 31 30 32 33 33 33 32 32 31 32 30 27 26 27 24 22 22 22 20 18 16 14 12 12 12 12 12 9 10 11 10 10 10 9 8
24 21 20 20 22 22 24 23 25 29 31 33 35 35 35 34 32 33 32 29 29 32 33 34 32 31 31 25 21 20 19 19 20 19 17 15 12 13 15 17 16 14 14 15 13 12 13 13 11
21 21 22 22 24 24 25 25 26 32 35 36 36 34 33 32 32 30 28 25 25 29 29 28 30 28 27 23 23 19 17 17 20 20 18 16 14 14 15 17 17 16 16 17 16 14 14 16 15
21 22 22 23 25 26 28 29 29 35 35 34 32 29 26 25 25 22 19 19 19 20 20 21 24 25 28 28 28 23 19 18 20 21 21 19 16 16 15 17 16 16 16 17 16 14 15 16 17
21 23 23 24 26 26 28 31 32 33 30 28 24 21 19 17 16 12 12 13 14 13 13 17 13 16 15 22 22 20 20 20 20 23 23 22 20 19 18 19 19 19 18 16 16 16 16 18 19
21 23 23 24 26 27 28 32 30 30 26 23 18 15 15 13 11 10 12 16 15 12 13 12 10 13 13 15 15 18 21 22 21 23 24 21 19 19 21 22 22 21 20 19 19 20 19 20 20
21 22 23 25 27 28 28 29 27 24 21 20 18 16 16 17 17 17 19 19 16 15 14 12 12 13 14 17 25 22 22 22 22 22 21 21 20 20 22 26 26 25 25 23 23 19 19 21 21
20 21 23 26 26 27 26 25 23 19 18 19 19 16 16 17 17 17 15 12 11 14 14 15 11 14 17 18 24 23 20 19 21 22 22 21 21 20 20 24 25 27 26 22 19 18 21 24 22
21 22 25 26 27 27 25 22 22 19 17 16 15 15 17 18 17 17 15 14 16 16 16 18 18 19 23 23 24 22 20 19 20 22 22 21 19 17 16 17 20 20 17 16 17 20 20 22 22
23 25 27 28 30 27 22 21 25 21 18 18 18 20 21 21 20 19 20 19 19 20 20 20 23 25 27 27 26 21 20 20 21 22 23 22 18 15 14 15 17 16 16 17 17 19 20 20 20
25 26 26 27 27 26 23 21 21 21 21 22 22 22 22 22 22 21 21 20 20 23 24 24 22 25 28 30 27 22 22 23 23 23 25 25 22 18 15 15 16 18 18 18 17 17 20 21 22
27 27 26 26 27 27 22 18 21 19 19 21 22 21 21 21 20 22 23 23 24 25 27 27 24 17 21 26 27 23 21 24 24 24 27 28 28 27 23 18 17 19 19 20 19 18 20 23 24
27 26 25 25 25 25 24 17 22 19 19 19 18 16 17 17 16 16 18 20 22 24 24 21 17 13 17 22 28 21 21 23 24 25 26 27 28 28 29 24 21 21 22 23 22 20 21 22 25
Wind_Direction
88 70 59 72 64 36 23 12 19 26 38 33 10 358 335 304 314 302 314 319 317 310 309 310 300 291 291 290 282 285 287 282 272 263 264 266 261 257 251 249 244 246 254 257 240 226 226 219 218
64 49 44 63 57 30 14 358 353 358 6 1 360 2 336 243 264 274 306 310 309 306 309 312 302 292 290 285 275 280 287 278 270 263 263 269 268 257 242 243 240 240 250 263 258 247 238 234 230
52 41 36 40 22 13 8 349 341 338 338 340 353 356 349 310 289 298 307 301 306 307 309 310 295 287 283 280 276 287 284 278 273 271 265 263 261 247 235 235 241 240 244 254 253 248 242 240 243
54 41 22 9 6 2 356 337 323 317 321 330 341 342 340 332 318 313 311 312 315 314 320 313 289 279 276 279 277 284 282 277 277 274 271 269 256 239 227 225 240 245 248 247 246 241 239 243 251
36 3 348 345 354 345 338 335 315 301 308 318 326 333 333 334 330 321 317 324 324 329 326 304 290 282 282 283 282 286 283 276 274 272 276 280 262 240 229 222 231 237 240 245 247 245 242 247 251
325 324 327 327 334 337 338 335 318 294 299 311 315 323 330 330 327 323 326 333 333 335 321 295 284 280 277 279 285 283 281 284 284 282 293 306 327 243 237 231 227 234 241 248 245 246 250 254 252
303 308 315 321 327 335 338 331 316 299 302 316 314 322 325 319 319 327 334 334 330 323 315 302 293 283 276 277 281 280 282 289 297 294 290 291 298 271 255 246 235 241 246 256 251 248 251 250 250
296 300 308 316 323 332 334 332 312 314 312 315 319 318 315 319 327 330 328 326 319 313 305 284 282 286 281 278 279 283 285 286 287 285 285 284 279 264 260 245 234 240 235 255 256 251 252 248 245
295 299 309 315 322 326 329 328 310 309 311 310 313 311 314 319 324 322 319 317 311 306 296 279 280 285 283 279 278 277 277 280 280 279 276 274 270 258 269 258 236 256 254 252 251 248 248 243 239
293 301 306 312 316 319 323 323 314 311 312 305 303 302 308 313 315 315 316 310 306 302 293 278 279 279 275 274 275 276 278 278 278 279 268 259 246 250 252 246 245 246 252 249 251 251 249 243 244
288 296 303 309 313 314 318 321 316 314 312 304 298 301 307 309 311 314 311 306 303 299 290 276 273 270 262 264 265 270 275 272 269 262 252 249 243 250 241 232 235 242 249 254 257 251 245 240 234
287 298 303 309 311 311 313 315 314 311 311 310 307 305 304 306 308 309 308 306 302 298 293 283 271 263 258 259 263 264 267 261 253 246 249 257 245 234 229 232 244 242 243 252 250 236 229 220 213
290 301 305 308 307 308 310 310 309 312 315 315 311 307 306 307 306 306 308 306 303 300 296 290 276 264 262 260 261 260 257 247 243 251 252 249 236 226 226 240 247 246 239 232 238 242 234 226 219
295 302 303 305 304 304 306 305 309 313 314 311 310 310 313 309 307 306 307 307 303 298 295 293 284 275 269 262 256 253 250 238 235 239 235 229 226 221 223 229 241 245 238 232 222 232 235 234 230
294 299 300 302 299 301 303 303 304 306 306 303 304 305 306 306 306 304 304 304 302 300 299 297 289 283 277 267 258 249 241 234 233 227 219 217 214 212 216 225 239 233 237 248 239 221 221 224 232
294 296 297 296 294 300 304 302 299 301 303 303 305 305 305 306 303 301 301 301 300 300 299 296 291 286 275 262 261 253 243 237 237 224 215 215 214 215 219 226 224 215 225 239 242 230 228 229 219
293 293 292 292 290 297 298 300 298 299 300 301 303 304 302 299 297 295 295 296 298 296 293 290 290 282 273 269 255 249 239 236 237 222 213 213 219 227 226 220 204 203 217 236 247 240 227 222 220
287 287 285 287 289 295 297 299 300 301 303 304 304 301 297 293 290 290 291 291 292 291 289 286 286 282 276 272 257 238 237 233 231 222 216 215 217 224 223 216 206 223 250 253 250 246 234 225 234
280 276 277 281 286 293 295 299 301 303 305 306 304 300 296 293 290 288 288 288 285 286 289 287 282 278 276 267 242 233 231 224 219 215 216 219 224 227 220 214 222 246 261 255 255 256 242 233 237
272 273 276 283 288 293 296 300 304 303 304 305 302 299 295 293 291 289 289 287 282 284 288 280 279 277 268 245 220 221 218 219 212 210 214 221 224 223 228 227 231 240 249 251 255 264 246 239 239
271 273 279 285 288 294 299 303 308 305 306 305 303 300 297 294 291 290 291 293 296 293 282 276 279 268 262 236 210 213 217 219 218 219 219 219 220 220 231 243 240 241 247 252 251 257 254 240 237
269 276 282 287 292 300 305 306 310 308 308 306 304 302 299 299 296 291 294 299 294 286 279 279 277 267 242 210 200 219 223 225 228 226 226 223 222 224 226 239 243 244 244 245 256 262 260 241 236
271 277 284 292 297 303 308 309 311 309 307 307 307 305 304 308 308 299 300 306 294 279 279 269 264 257 226 197 205 229 237 235 233 230 228 228 230 233 235 234 243 247 242 235 253 267 257 248 242
274 281 288 293 298 303 309 310 308 304 300 302 304 306 302 302 299 297 298 296 286 279 278 264 260 250 235 214 226 222 232 236 233 228 229 233 239 244 247 240 237 245 248 250 262 261 257 252 245
277 285 291 294 297 302 309 309 306 301 299 300 303 307 306 302 297 298 302 298 280 287 288 280 268 245 232 223 228 230 229 231 231 229 230 233 238 243 248 246 237 238 245 250 249 249 253 248 245
277 280 282 288 293 300 307 305 303 302 302 301 303 305 306 305 299 291 287 289 288 286 286 279 271 249 230 221 221 223 224 228 232 231 231 232 234 241 251 241 226 224 229 237 249 253 247 242 241
276 279 285 288 292 296 297 295 293 294 297 297 299 301 301 298 296 293 289 284 281 281 284 286 285 262 236 232 223 221 224 226 232 235 235 236 234 237 236 226 217 218 234 242 246 256 246 234 231
278 283 285 287 290 293 296 293 288 291 298 301 304 302 301 297 291 285 284 281 277 274 272 278 285 270 237 222 217 219 226 227 231 239 243 240 235 230 234 240 236 232 238 242 244 253 250 238 230
283 284 283 282 286 289 293 294 287 290 293 296 301 305 306 305 301 288 278 277 277 281 282 283 295 282 240 224 215 218 227 238 243 244 247 244 241 236 233 233 235 239 242 249 251 258 255 242 234
280 281 283 284 287 286 285 283 282 296 295 295 300 304 311 317 315 304 296 288 283 284 286 285 283 265 246 235 225 232 239 244 251 250 248 245 243 237 232 229 238 242 240 243 245 252 251 236 236
Height
5918 5918 5918 5918 5918 5917 5915 5915 5913 5912 5910 5910 5909 5908 5907 5906 5906 5907 5904 5901 5900 5899 5898 5897 5896 5894 5893 5892 5890 5889 5889 5889 5888 5888 5887 5885 5884 5884 5884 5885 5885 5885 5886 5886 5887 5888 5889 5891 5891
5918 5917 5918 5917 5917 5916 5915 5913 5911 5909 5909 5907 5907 5906 5906 5905 5904 5903 5901 5901 5900 5898 5897 5896 5894 5892 5890 5890 5889 5888 5888 5888 5887 5886 5885 5884 5884 5883 5883 5883 5883 5884 5885 5885 5886 5887 5888 5889 5890
5917 5917 5918 5917 5916 5915 5914 5911 5909 5908 5907 5906 5905 5904 5904 5903 5902 5901 5901 5900 5899 5897 5896 5894 5892 5890 5888 5887 5887 5887 5886 5886 5885 5884 5884 5883 5882 5881 5881 5881 5881 5882 5883 5884 5885 5886 5887 5888 5888
5917 5918 5918 5918 5916 5915 5913 5911 5909 5908 5907 5905 5904 5902 5901 5901 5900 5900 5898 5898 5897 5895 5894 5892 5891 5889 5887 5886 5885 5884 5884 5883 5883 5883 5882 5881 5879 5878 5878 5878 5879 5880 5882 5883 5883 5884 5885 5886 5887
5917 5917 5917 5917 5917 5915 5913 5910 5908 5907 5906 5904 5903 5901 5900 5899 5898 5897 5896 5896 5895 5893 5891 5889 5888 5887 5886 5885 5884 5883 5882 5881 5881 5880 5879 5879 5876 5875 5876 5875 5876 5878 5880 5881 5882 5883 5884 5885 5886
5916 5916 5917 5916 5916 5914 5911 5908 5907 5906 5904 5903 5902 5901 5899 5898 5896 5896 5895 5893 5892 5891 5889 5887 5886 5885 5884 5883 5883 5880 5880 5880 5879 5877 5876 5876 5872 5873 5874 5873 5874 5875 5877 5879 5880 5881 5882 5884 5884
5915 5915 5915 5915 5914 5912 5910 5908 5906 5905 5904 5902 5901 5899 5898 5897 5895 5893 5892 5891 5889 5888 5887 5885 5884 5883 5882 5881 5880 5879 5877 5877 5877 5875 5874 5873 5872 5872 5872 5872 5872 5873 5874 5875 5877 5878 5879 5881 5882
5913 5914 5914 5913 5911 5910 5908 5906 5904 5903 5902 5900 5898 5897 5896 5894 5892 5891 5890 5888 5887 5886 5884 5883 5882 5881 5880 5879 5878 5876 5875 5874 5874 5872 5871 5871 5871 5870 5870 5870 5871 5870 5871 5873 5874 5875 5876 5878 5879
5911 5913 5911 5910 5909 5907 5906 5904 5902 5901 5899 5897 5896 5894 5893 5892 5891 5889 5888 5886 5884 5883 5882 5881 5879 5878 5877 5877 5875 5874 5873 5871 5870 5870 5868 5868 5868 5868 5869 5869 5869 5868 5869 5871 5872 5873 5874 5875 5876
5909 5909 5908 5908 5907 5905 5903 5902 5899 5898 5896 5895 5893 5892 5891 5890 5889 5887 5886 5883 5882 5881 5880 5878 5876 5876 5875 5874 5873 5871 5870 5868 5866 5866 5865 5865 5865 5866 5866 5867 5867 5867 5868 5868 5870 5871 5871 5872 5872
5907 5906 5905 5904 5903 5901 5900 5898 5895 5893 5892 5891 5890 5890 5888 5887 5886 5884 5883 5881 5879 5878 5877 5875 5873 5872 5872 5871 5869 5868 5867 5865 5864 5863 5863 5863 5863 5864 5864 5864 5865 5867 5867 5867 5868 5869 5868 5868 5870
5904 5903 5902 5901 5899 5898 5896 5895 5893 5891 5889 5888 5888 5887 5885 5884 5882 5881 5879 5878 5876 5875 5873 5872 5870 5869 5868 5867 5865 5864 5863 5863 5862 5861 5861 5861 5861 5862 5864 5864 5865 5866 5866 5866 5867 5867 5867 5867 5868
5901 5900 5899 5898 5896 5894 5892 5890 5889 5888 5886 5885 5884 5884 5883 5881 5879 5877 5876 5874 5872 5871 5869 5867 5866 5865 5864 5863 5861 5860 5860 5860 5860 5859 5859 5859 5859 5861 5863 5863 5864 5864 5865 5865 5866 5866 5866 5866 5867
5897 5897 5895 5894 5891 5891 5890 5887 5885 5885 5883 5882 5880 5879 5878 5876 5874 5873 5872 5870 5868 5866 5864 5863 5862 5861 5860 5859 5858 5857 5857 5857 5858 5857 5857 5857 5858 5859 5860 5861 5862 5864 5865 5865 5866 5866 5866 5866 5866
5895 5894 5892 5891 5888 5887 5887 5884 5882 5881 5880 5878 5877 5875 5873 5873 5870 5868 5866 5865 5864 5862 5860 5858 5856 5855 5855 5855 5854 5853 5854 5856 5855 5855 5856 5856 5857 5858 5858 5859 5861 5863 5864 5865 5865 5866 5866 5866 5866
5891 5890 5889 5887 5884 5883 5885 5882 5879 5877 5876 5875 5873 5872 5870 5868 5865 5861 5860 5859 5858 5856 5854 5852 5850 5849 5849 5850 5850 5850 5851 5853 5853 5853 5854 5854 5856 5856 5857 5858 5859 5861 5862 5863 5864 5864 5864 5864 5865
5886 5886 5884 5884 5881 5880 5880 5878 5875 5874 5872 5871 5869 5867 5866 5863 5860 5856 5854 5852 5850 5848 5847 5845 5843 5843 5843 5843 5843 5844 5846 5849 5850 5851 5852 5852 5853 5854 5855 5857 5858 5859 5860 5861 5862 5863 5863 5864 5865
5883 5881 5880 5880 5877 5877 5875 5874 5871 5869 5867 5866 5865 5862 5859 5857 5854 5850 5848 5846 5843 5841 5839 5836 5836 5836 5837 5837 5837 5839 5842 5844 5846 5848 5850 5850 5850 5851 5853 5856 5857 5858 5858 5859 5860 5861 5862 5863 5864
5877 5877 5877 5876 5874 5874 5872 5871 5868 5864 5861 5859 5857 5854 5851 5848 5845 5842 5841 5840 5837 5834 5831 5830 5828 5828 5830 5831 5832 5834 5837 5839 5841 5843 5845 5846 5847 5848 5850 5852 5854 5855 5855 5856 5857 5858 5859 5860 5861
5871 5872 5872 5872 5870 5869 5867 5867 5864 5859 5855 5853 5849 5846 5842 5839 5837 5835 5833 5833 5832 5829 5827 5824 5823 5823 5822 5825 5828 5831 5833 5834 5836 5838 5839 5842 5843 5845 5847 5849 5849 5850 5851 5852 5854 5855 5856 5857 5857
5867 5868 5867 5867 5866 5864 5862 5861 5859 5853 5850 5846 5842 5838 5836 5833 5830 5828 5827 5826 5825 5823 5821 5819 5817 5816 5816 5819 5822 5827 5830 5831 5833 5834 5835 5837 5840 5841 5842 5845 5846 5846 5847 5849 5850 5851 5853 5854 5854
5863 5863 5863 5862 5861 5859 5858 5855 5852 5847 5843 5840 5837 5833 5830 5827 5825 5824 5823 5822 5821 5819 5817 5815 5812 5812 5811 5814 5818 5822 5825 5827 5829 5830 5831 5832 5835 5836 5837 5839 5841 5842 5843 5845 5847 5847 5848 5850 5851
5859 5858 5858 5856 5855 5854 5852 5849 5847 5841 5837 5834 5832 5829 5826 5824 5822 5822 5820 5819 5817 5815 5813 5812 5809 5809 5810 5812 5815 5818 5820 5822 5824 5825 5825 5827 5830 5831 5832 5834 5835 5836 5838 5840 5842 5843 5845 5846 5847
5853 5853 5853 5852 5850 5850 5847 5844 5842 5837 5833 5830 5828 5826 5823 5821 5820 5819 5818 5815 5813 5811 5810 5808 5807 5807 5808 5810 5811 5813 5815 5816 5818 5820 5821 5823 5825 5826 5827 5828 5829 5831 5832 5834 5837 5839 5840 5840 5841
5849 5849 5849 5848 5846 5845 5842 5839 5837 5832 5829 5826 5823 5821 5819 5818 5816 5815 5814 5812 5810 5809 5808 5806 5804 5804 5806 5807 5809 5810 5811 5812 5813 5815 5817 5819 5820 5820 5821 5820 5823 5825 5827 5829 5831 5833 5834 5836 5837
5844 5845 5845 5844 5842 5840 5837 5834 5832 5829 5825 5822 5820 5818 5815 5813 5811 5810 5810 5809 5806 5805 5804 5802 5802 5802 5802 5803 5804 5806 5807 5809 5810 5811 5812 5814 5814 5815 5816 5815 5817 5820 5822 5824 5826 5828 5829 5830 5832
5838 5838 5837 5837 5834 5833 5833 5831 5827 5824 5821 5817 5815 5813 5810 5808 5806 5805 5804 5804 5803 5801 5800 5798 5798 5797 5799 5801 5800 5802 5803 5805 5806 5807 5808 5810 5809 5810 5811 5813 5815 5816 5818 5820 5823 5824 5824 5825 5827
5834 5833 5832 5829 5828 5827 5827 5825 5821 5818 5815 5812 5810 5807 5804 5802 5800 5799 5799 5798 5798 5796 5795 5794 5792 5788 5791 5796 5796 5797 5798 5800 5801 5802 5804 5805 5806 5807 5808 5809 5811 5813 5815 5817 5818 5819 5820 5821 5823
5827 5827 5825 5824 5823 5821 5820 5823 5815 5814 5812 5809 5805 5802 5799 5797 5795 5793 5791 5791 5791 5790 5789 5788 5786 5786 5789 5790 5790 5791 5792 5796 5797 5797 5798 5799 5800 5803 5805 5805 5806 5808 5810 5812 5813 5813 5815 5816 5818
5821 5821 5820 5819 5817 5814 5814 5818 5810 5808 5806 5804 5801 5799 5796 5793 5791 5788 5786 5785 5785 5784 5783 5782 5782 5782 5783 5784 5785 5785 5787 5790 5791 5791 5792 5792 5794 5796 5798 5800 5801 5802 5804 5807 5807 5807 5808 5810 5813